| time (UTC) | temp F | wind direction | speed knots | gust knots | rain 1hr in | rain 24hr in | rain mn in | humidity % | barometer mb |
| 20260905024541 | 86 | 81 | 3.5 | 7.8 | 0.00 | 0.00 | 0.00 | 59 | 1010.6 |
| 20260905024026 | 86 | 85 | 4.3 | 7.8 | 0.00 | 0.00 | 0.00 | 58 | 1010.6 |
| 20260905023524 | 87 | 82 | 4.3 | 7.0 | 0.00 | 0.00 | 0.00 | 58 | 1010.6 |
| 20260905023047 | 87 | 91 | 3.5 | 7.0 | 0.00 | 0.00 | 0.00 | 58 | 1010.4 |
| 20260905022524 | 87 | 78 | 4.3 | 6.1 | 0.00 | 0.00 | 0.00 | 58 | 1010.4 |
| 20260905022025 | 87 | 81 | 3.5 | 7.0 | 0.00 | 0.00 | 0.00 | 58 | 1010.2 |
| 20260905021546 | 87 | 86 | 4.3 | 7.0 | 0.00 | 0.00 | 0.00 | 58 | 1010.2 |
| 20260905021024 | 87 | 84 | 3.5 | 7.0 | 0.00 | 0.00 | 0.00 | 58 | 1010.1 |
| 20260905020525 | 87 | 90 | 4.3 | 7.0 | 0.00 | 0.00 | 0.00 | 57 | 1009.9 |
| 20260905020043 | 87 | 84 | 3.5 | 6.1 | 0.00 | 0.00 | 0.00 | 57 | 1009.7 |
| 20260905015524 | 88 | 86 | 2.6 | 5.2 | 0.00 | 0.00 | 0.00 | 56 | 1009.6 |
| 20260905015028 | 88 | 90 | 2.6 | 5.2 | 0.00 | 0.00 | 0.00 | 56 | 1009.6 |
| 20260905014548 | 88 | 87 | 2.6 | 5.2 | 0.00 | 0.00 | 0.00 | 56 | 1009.4 |
| 20260905014024 | 88 | 84 | 2.6 | 5.2 | 0.00 | 0.00 | 0.00 | 56 | 1009.4 |
| 20260905013524 | 89 | 86 | 2.6 | 5.2 | 0.00 | 0.00 | 0.00 | 55 | 1009.3 |
| 20260905013047 | 89 | 90 | 3.5 | 5.2 | 0.00 | 0.00 | 0.00 | 55 | 1009.4 |
| 20260905012524 | 89 | 96 | 3.5 | 5.2 | 0.00 | 0.00 | 0.00 | 54 | 1009.3 |
| 20260905012024 | 89 | 94 | 2.6 | 5.2 | 0.00 | 0.00 | 0.00 | 55 | 1009.3 |
| 20260905011544 | 89 | 93 | 2.6 | 5.2 | 0.00 | 0.00 | 0.00 | 54 | 1009.2 |
| 20260905011024 | 90 | 110 | 3.5 | 6.1 | 0.00 | 0.00 | 0.00 | 53 | 1009.1 |
| 20260905010526 | 91 | 106 | 2.6 | 6.1 | 0.00 | 0.00 | 0.00 | 52 | 1009.2 |
| 20260905010042 | 91 | 105 | 3.5 | 7.0 | 0.00 | 0.00 | 0.00 | 51 | 1009.2 |
| 20260905005525 | 92 | 111 | 3.5 | 7.8 | 0.00 | 0.00 | 0.00 | 50 | 1009.2 |
| 20260905005024 | 92 | 97 | 4.3 | 7.8 | 0.00 | 0.00 | 0.00 | 49 | 1009.1 |
| 20260905004551 | 93 | 360 | 5.2 | 8.7 | 0.00 | 0.00 | 0.00 | 49 | 1009.0 |
| 20260905004023 | 93 | 105 | 5.2 | 8.7 | 0.00 | 0.00 | 0.00 | 48 | 1009.1 |
| 20260905003527 | 94 | 110 | 6.1 | 8.7 | 0.00 | 0.00 | 0.00 | 47 | 1009.1 |
| 20260905003044 | 94 | 95 | 6.1 | 9.6 | 0.00 | 0.00 | 0.00 | 47 | 1009.1 |
| 20260905002524 | 95 | 108 | 5.2 | 9.6 | 0.00 | 0.00 | 0.00 | 47 | 1009.1 |
| 20260905002023 | 95 | 102 | 5.2 | 8.7 | 0.00 | 0.00 | 0.00 | 46 | 1009.1 |
| 20260905001544 | 96 | 101 | 5.2 | 9.6 | 0.00 | 0.00 | 0.00 | 46 | 1009.0 |
| 20260905001024 | 96 | 103 | 6.1 | 9.6 | 0.00 | 0.00 | 0.00 | 45 | 1009.0 |
| 20260905000525 | 96 | 123 | 6.1 | 9.6 | 0.00 | 0.00 | 0.00 | 45 | 1009.1 |
| 20260905000047 | 96 | 115 | 3.5 | 12.2 | 0.00 | 0.00 | 0.00 | 45 | 1009.1 |
| 20260904235526 | 97 | 109 | 6.1 | 12.2 | 0.00 | 0.00 | 0.00 | 44 | 1009.1 |
| 20260904235023 | 97 | 119 | 7.0 | 10.4 | 0.00 | 0.00 | 0.00 | 43 | 1009.1 |
| 20260904234547 | 97 | 110 | 7.8 | 13.0 | 0.00 | 0.00 | 0.00 | 43 | 1009.1 |
| 20260904234026 | 98 | 108 | 7.8 | 13.0 | 0.00 | 0.00 | 0.00 | 43 | 1009.1 |
| 20260904233524 | 98 | 108 | 7.8 | 12.2 | 0.00 | 0.00 | 0.00 | 43 | 1009.1 |
| 20260904233050 | 98 | 136 | 7.0 | 11.3 | 0.00 | 0.00 | 0.00 | 43 | 1009.1 |
| 20260904232526 | 98 | 107 | 7.8 | 12.2 | 0.00 | 0.00 | 0.00 | 42 | 1009.0 |
| 20260904232026 | 98 | 101 | 7.0 | 14.8 | 0.00 | 0.00 | 0.00 | 42 | 1008.9 |
| 20260904231544 | 98 | 90 | 8.7 | 14.8 | 0.00 | 0.00 | 0.00 | 42 | 1009.0 |
| 20260904231023 | 98 | 86 | 5.2 | 11.3 | 0.00 | 0.00 | 0.00 | 43 | 1009.1 |
| 20260904230522 | 99 | 110 | 6.1 | 13.0 | 0.00 | 0.00 | 0.00 | 42 | 1009.0 |
| 20260904230043 | 99 | 109 | 8.7 | 13.9 | 0.00 | 0.00 | 0.00 | 41 | 1009.1 |
| 20260904225525 | 99 | 111 | 8.7 | 13.9 | 0.00 | 0.00 | 0.00 | 42 | 1009.1 |
| 20260904225025 | 99 | 125 | 7.0 | 13.9 | 0.00 | 0.00 | 0.00 | 41 | 1009.1 |
| 20260904224601 | 99 | 136 | 9.6 | 13.9 | 0.00 | 0.00 | 0.00 | 41 | 1009.1 |
| 20260904224024 | 99 | 115 | 7.0 | 14.8 | 0.00 | 0.00 | 0.00 | 42 | 1009.0 |
| 20260904223524 | 99 | 101 | 7.8 | 18.2 | 0.00 | 0.00 | 0.00 | 41 | 1009.1 |
| 20260904223048 | 99 | 97 | 11.3 | 18.2 | 0.00 | 0.00 | 0.00 | 42 | 1009.1 |
| 20260904222523 | 99 | 119 | 6.1 | 13.9 | 0.00 | 0.00 | 0.00 | 42 | 1009.0 |
| 20260904222021 | 100 | 122 | 8.7 | 13.9 | 0.00 | 0.00 | 0.00 | 41 | 1009.0 |
| 20260904221548 | 100 | 145 | 6.1 | 16.5 | 0.00 | 0.00 | 0.00 | 40 | 1009.1 |
| 20260904221023 | 100 | 123 | 10.4 | 16.5 | 0.00 | 0.00 | 0.00 | 40 | 1009.2 |
| 20260904220531 | 100 | 130 | 7.0 | 17.4 | 0.00 | 0.00 | 0.00 | 41 | 1009.1 |
| 20260904220044 | 100 | 123 | 10.4 | 17.4 | 0.00 | 0.00 | 0.00 | 41 | 1009.1 |
| 20260904215524 | 100 | 87 | 7.8 | 16.5 | 0.00 | 0.00 | 0.00 | 41 | 1009.1 |
| 20260904215025 | 100 | 96 | 9.6 | 16.5 | 0.00 | 0.00 | 0.00 | 41 | 1009.1 |
| 20260904214549 | 100 | 113 | 7.0 | 16.5 | 0.00 | 0.00 | 0.00 | 40 | 1009.2 |
| 20260904214024 | 100 | 95 | 9.6 | 16.5 | 0.00 | 0.00 | 0.00 | 41 | 1009.2 |
| 20260904213524 | 100 | 100 | 9.6 | 14.8 | 0.00 | 0.00 | 0.00 | 42 | 1009.2 |
| 20260904213045 | 101 | 103 | 7.8 | 13.9 | 0.00 | 0.00 | 0.00 | 41 | 1009.2 |
| 20260904212524 | 100 | 142 | 7.8 | 16.5 | 0.00 | 0.00 | 0.00 | 41 | 1009.3 |
| 20260904212023 | 100 | 117 | 8.7 | 16.5 | 0.00 | 0.00 | 0.00 | 41 | 1009.4 |
| 20260904211545 | 100 | 105 | 8.7 | 16.5 | 0.00 | 0.00 | 0.00 | 40 | 1009.5 |
| 20260904211025 | 100 | 119 | 8.7 | 15.6 | 0.00 | 0.00 | 0.00 | 41 | 1009.4 |
| 20260904210526 | 100 | 108 | 9.6 | 15.6 | 0.00 | 0.00 | 0.00 | 42 | 1009.5 |
| 20260904210052 | 100 | 100 | 10.4 | 14.8 | 0.00 | 0.00 | 0.00 | 40 | 1009.6 |
| 20260904205525 | 100 | 117 | 6.1 | 15.6 | 0.00 | 0.00 | 0.00 | 41 | 1009.6 |
| 20260904205026 | 100 | 105 | 7.0 | 15.6 | 0.00 | 0.00 | 0.00 | 41 | 1009.6 |
| 20260904204545 | 100 | 99 | 10.4 | 15.6 | 0.00 | 0.00 | 0.00 | 41 | 1009.7 |
| 20260904204025 | 100 | 146 | 6.1 | 15.6 | 0.00 | 0.00 | 0.00 | 42 | 1009.7 |
| 20260904203524 | 99 | 114 | 9.6 | 15.6 | 0.00 | 0.00 | 0.00 | 42 | 1009.8 |
| 20260904203047 | 100 | 101 | 9.6 | 14.8 | 0.00 | 0.00 | 0.00 | 41 | 1009.9 |
| 20260904202525 | 100 | 96 | 8.7 | 14.8 | 0.00 | 0.00 | 0.00 | 42 | 1009.8 |
| 20260904202025 | 100 | 94 | 7.8 | 17.4 | 0.00 | 0.00 | 0.00 | 42 | 1009.7 |
| 20260904201558 | 100 | 95 | 11.3 | 17.4 | 0.00 | 0.00 | 0.00 | 42 | 1009.7 |
| 20260904201024 | 100 | 101 | 10.4 | 15.6 | 0.00 | 0.00 | 0.00 | 43 | 1009.7 |
| 20260904200524 | 100 | 94 | 10.4 | 16.5 | 0.00 | 0.00 | 0.00 | 42 | 1009.7 |
| 20260904200044 | 100 | 109 | 9.6 | 17.4 | 0.00 | 0.00 | 0.00 | 43 | 1009.9 |
| 20260904195526 | 99 | 94 | 7.0 | 17.4 | 0.00 | 0.00 | 0.00 | 44 | 1009.9 |
| 20260904195023 | 100 | 96 | 8.7 | 13.0 | 0.00 | 0.00 | 0.00 | 43 | 1010.0 |
| 20260904194559 | 100 | 92 | 8.7 | 16.5 | 0.00 | 0.00 | 0.00 | 43 | 1010.0 |
| 20260904194025 | 99 | 124 | 9.6 | 17.4 | 0.00 | 0.00 | 0.00 | 44 | 1010.0 |
| 20260904193525 | 99 | 126 | 10.4 | 17.4 | 0.00 | 0.00 | 0.00 | 45 | 1009.9 |
| 20260904193041 | 98 | 101 | 12.2 | 17.4 | 0.00 | 0.00 | 0.00 | 45 | 1010.0 |
| 20260904192523 | 98 | 84 | 11.3 | 17.4 | 0.00 | 0.00 | 0.00 | 44 | 1010.1 |
| 20260904192028 | 98 | 87 | 8.7 | 24.3 | 0.00 | 0.00 | 0.00 | 45 | 1010.0 |
| 20260904191544 | 99 | 95 | 10.4 | 24.3 | 0.00 | 0.00 | 0.00 | 44 | 1010.1 |
| 20260904191021 | 100 | 94 | 12.2 | 16.5 | 0.00 | 0.00 | 0.00 | 43 | 1010.0 |
| 20260904190524 | 99 | 116 | 10.4 | 16.5 | 0.00 | 0.00 | 0.00 | 45 | 1010.1 |
| 20260904190045 | 98 | 115 | 7.8 | 16.5 | 0.00 | 0.00 | 0.00 | 45 | 1010.3 |
| 20260904185524 | 97 | 104 | 9.6 | 15.6 | 0.00 | 0.00 | 0.00 | 47 | 1010.4 |
| 20260904185023 | 98 | 86 | 9.6 | 18.2 | 0.00 | 0.00 | 0.00 | 46 | 1010.3 |
| 20260904184542 | 99 | 137 | 10.4 | 18.2 | 0.00 | 0.00 | 0.00 | 45 | 1010.5 |
| 20260904184022 | 98 | 99 | 9.6 | 18.2 | 0.00 | 0.00 | 0.00 | 46 | 1010.5 |
| 20260904183521 | 98 | 126 | 7.0 | 17.4 | 0.00 | 0.00 | 0.00 | 46 | 1010.6 |
| 20260904183046 | 99 | 111 | 6.1 | 19.1 | 0.00 | 0.00 | 0.00 | 46 | 1010.7 |
| 20260904182524 | 98 | 126 | 7.8 | 19.1 | 0.00 | 0.00 | 0.00 | 46 | 1010.8 |
| 20260904182028 | 98 | 123 | 10.4 | 19.1 | 0.00 | 0.00 | 0.00 | 46 | 1010.8 |
| 20260904181545 | 97 | 100 | 7.8 | 17.4 | 0.00 | 0.00 | 0.00 | 47 | 1010.8 |
| 20260904181024 | 97 | 131 | 10.4 | 17.4 | 0.00 | 0.00 | 0.00 | 47 | 1010.9 |
| 20260904180523 | 98 | 125 | 7.0 | 13.9 | 0.00 | 0.00 | 0.00 | 46 | 1010.9 |
| 20260904180044 | 98 | 127 | 8.7 | 17.4 | 0.00 | 0.00 | 0.00 | 47 | 1011.0 |
| 20260904175524 | 97 | 110 | 7.8 | 17.4 | 0.00 | 0.00 | 0.00 | 48 | 1011.0 |
| 20260904175024 | 96 | 111 | 8.7 | 15.6 | 0.00 | 0.00 | 0.00 | 48 | 1011.0 |
| 20260904174550 | 96 | 146 | 9.6 | 15.6 | 0.00 | 0.00 | 0.00 | 48 | 1011.2 |
| 20260904174025 | 96 | 100 | 8.7 | 14.8 | 0.00 | 0.00 | 0.00 | 48 | 1011.1 |
| 20260904173523 | 96 | 118 | 7.0 | 11.3 | 0.00 | 0.00 | 0.00 | 49 | 1011.1 |
| 20260904173103 | 95 | 111 | 7.0 | 16.5 | 0.00 | 0.00 | 0.00 | 49 | 1011.3 |
| 20260904172524 | 96 | 117 | 9.6 | 16.5 | 0.00 | 0.00 | 0.00 | 49 | 1011.3 |
| 20260904172024 | 95 | 150 | 7.0 | 13.0 | 0.00 | 0.00 | 0.00 | 50 | 1011.3 |
| 20260904171552 | 95 | 141 | 5.2 | 13.0 | 0.00 | 0.00 | 0.00 | 51 | 1011.4 |
| 20260904171026 | 95 | 110 | 7.8 | 15.6 | 0.00 | 0.00 | 0.00 | 50 | 1011.4 |
| 20260904170525 | 94 | 102 | 8.7 | 15.6 | 0.00 | 0.00 | 0.00 | 50 | 1011.5 |
| 20260904170047 | 94 | 120 | 7.8 | 14.8 | 0.00 | 0.00 | 0.00 | 51 | 1011.5 |
| 20260904165525 | 94 | 81 | 7.0 | 15.6 | 0.00 | 0.00 | 0.00 | 52 | 1011.7 |
| 20260904165024 | 93 | 131 | 6.1 | 17.4 | 0.00 | 0.00 | 0.00 | 51 | 1011.7 |
| 20260904164553 | 94 | 113 | 10.4 | 17.4 | 0.00 | 0.00 | 0.00 | 52 | 1011.7 |
| 20260904164025 | 93 | 107 | 9.6 | 16.5 | 0.00 | 0.00 | 0.00 | 52 | 1011.6 |
| 20260904163524 | 93 | 105 | 7.8 | 13.9 | 0.00 | 0.00 | 0.00 | 53 | 1011.7 |
| 20260904163043 | 92 | 101 | 7.0 | 13.9 | 0.00 | 0.00 | 0.00 | 53 | 1011.6 |
| 20260904162524 | 93 | 132 | 10.4 | 13.9 | 0.00 | 0.00 | 0.00 | 53 | 1011.6 |
| 20260904162025 | 92 | 135 | 7.8 | 13.9 | 0.00 | 0.00 | 0.00 | 54 | 1011.5 |
| 20260904161542 | 92 | 126 | 6.1 | 13.9 | 0.00 | 0.00 | 0.00 | 55 | 1011.5 |
| 20260904161025 | 92 | 113 | 8.7 | 13.9 | 0.00 | 0.00 | 0.00 | 54 | 1011.7 |
| 20260904160523 | 91 | 128 | 6.1 | 12.2 | 0.00 | 0.00 | 0.00 | 55 | 1011.5 |
| 20260904160046 | 91 | 140 | 5.2 | 12.2 | 0.00 | 0.00 | 0.00 | 56 | 1011.5 |
| 20260904155525 | 90 | 138 | 5.2 | 12.2 | 0.00 | 0.00 | 0.00 | 56 | 1011.6 |
| 20260904155024 | 90 | 149 | 7.8 | 13.0 | 0.00 | 0.00 | 0.00 | 56 | 1011.5 |
| 20260904154544 | 90 | 114 | 7.0 | 13.0 | 0.00 | 0.00 | 0.00 | 57 | 1011.6 |
| 20260904154028 | 90 | 113 | 7.0 | 13.0 | 0.00 | 0.00 | 0.00 | 57 | 1011.6 |
| 20260904153524 | 89 | 138 | 7.8 | 13.0 | 0.00 | 0.00 | 0.00 | 57 | 1011.8 |
| 20260904153043 | 89 | 110 | 7.0 | 13.0 | 0.00 | 0.00 | 0.00 | 58 | 1011.7 |
| 20260904152524 | 89 | 123 | 8.7 | 13.9 | 0.00 | 0.00 | 0.00 | 58 | 1011.8 |
| 20260904152024 | 88 | 146 | 7.8 | 14.8 | 0.00 | 0.00 | 0.00 | 59 | 1011.8 |
| 20260904151548 | 88 | 146 | 9.6 | 14.8 | 0.00 | 0.00 | 0.00 | 59 | 1011.9 |
| 20260904151028 | 88 | 146 | 7.0 | 15.6 | 0.00 | 0.00 | 0.00 | 59 | 1011.9 |
| 20260904150524 | 88 | 140 | 8.7 | 15.6 | 0.00 | 0.00 | 0.00 | 60 | 1011.8 |
| 20260904150104 | 87 | 139 | 8.7 | 15.6 | 0.00 | 0.00 | 0.00 | 60 | 1011.9 |
| 20260904145524 | 87 | 119 | 9.6 | 15.6 | 0.00 | 0.00 | 0.00 | 61 | 1011.9 |
| 20260904145027 | 86 | 113 | 9.6 | 16.5 | 0.00 | 0.00 | 0.00 | 62 | 1011.8 |
| 20260904144545 | 86 | 120 | 10.4 | 16.5 | 0.00 | 0.00 | 0.00 | 62 | 1011.8 |
| 20260904144024 | 86 | 111 | 9.6 | 16.5 | 0.00 | 0.00 | 0.00 | 62 | 1011.7 |
| 20260904143525 | 85 | 96 | 7.8 | 12.2 | 0.00 | 0.00 | 0.00 | 64 | 1011.7 |
| 20260904143044 | 85 | 125 | 7.8 | 13.0 | 0.00 | 0.00 | 0.00 | 65 | 1011.8 |
| 20260904142523 | 84 | 100 | 8.7 | 16.5 | 0.00 | 0.00 | 0.00 | 65 | 1011.8 |
| 20260904142023 | 84 | 115 | 7.8 | 16.5 | 0.00 | 0.00 | 0.00 | 66 | 1011.9 |
| 20260904141548 | 83 | 114 | 10.4 | 15.6 | 0.00 | 0.00 | 0.00 | 68 | 1011.9 |
| 20260904141024 | 82 | 109 | 8.7 | 13.9 | 0.00 | 0.00 | 0.00 | 69 | 1011.9 |
| 20260904140524 | 82 | 108 | 6.1 | 13.0 | 0.00 | 0.00 | 0.00 | 70 | 1011.8 |
| 20260904140046 | 81 | 112 | 7.8 | 13.0 | 0.00 | 0.00 | 0.00 | 72 | 1011.8 |
| 20260904135524 | 81 | 113 | 7.0 | 11.3 | 0.00 | 0.00 | 0.00 | 73 | 1011.7 |
| 20260904135024 | 80 | 119 | 7.0 | 11.3 | 0.00 | 0.00 | 0.00 | 74 | 1011.7 |
| 20260904134553 | 79 | 100 | 7.0 | 11.3 | 0.00 | 0.00 | 0.00 | 75 | 1011.7 |
| 20260904134024 | 79 | 120 | 6.1 | 10.4 | 0.00 | 0.00 | 0.00 | 77 | 1011.6 |
| 20260904133525 | 78 | 105 | 7.0 | 10.4 | 0.00 | 0.00 | 0.00 | 78 | 1011.5 |
| 20260904133050 | 77 | 111 | 7.0 | 11.3 | 0.00 | 0.00 | 0.00 | 79 | 1011.4 |
| 20260904132526 | 77 | 110 | 7.8 | 11.3 | 0.00 | 0.00 | 0.00 | 80 | 1011.4 |
| 20260904132024 | 76 | 105 | 7.0 | 11.3 | 0.00 | 0.00 | 0.00 | 81 | 1011.5 |
| 20260904131546 | 76 | 103 | 7.0 | 11.3 | 0.00 | 0.00 | 0.00 | 83 | 1011.4 |
| 20260904131024 | 75 | 104 | 7.0 | 10.4 | 0.00 | 0.00 | 0.00 | 84 | 1011.3 |
| 20260904130528 | 75 | 105 | 7.0 | 10.4 | 0.00 | 0.00 | 0.00 | 84 | 1011.3 |
| 20260904130045 | 74 | 91 | 6.1 | 9.6 | 0.00 | 0.00 | 0.00 | 86 | 1011.3 |
| 20260904125524 | 74 | 115 | 7.0 | 9.6 | 0.00 | 0.00 | 0.00 | 86 | 1011.3 |
| 20260904125025 | 73 | 109 | 6.1 | 8.7 | 0.00 | 0.00 | 0.00 | 86 | 1011.3 |
| 20260904124544 | 73 | 107 | 5.2 | 8.7 | 0.00 | 0.00 | 0.00 | 87 | 1011.1 |
| 20260904124027 | 73 | 104 | 5.2 | 8.7 | 0.00 | 0.00 | 0.00 | 87 | 1011.2 |
| 20260904123525 | 72 | 91 | 6.1 | 8.7 | 0.00 | 0.00 | 0.00 | 88 | 1011.0 |
| 20260904123046 | 72 | 92 | 5.2 | 8.7 | 0.00 | 0.00 | 0.00 | 88 | 1011.0 |
| 20260904122525 | 72 | 101 | 5.2 | 8.7 | 0.00 | 0.00 | 0.00 | 88 | 1011.0 |
| 20260904122025 | 72 | 94 | 6.1 | 7.8 | 0.00 | 0.00 | 0.00 | 87 | 1010.9 |
| 20260904121544 | 72 | 94 | 4.3 | 7.8 | 0.00 | 0.00 | 0.00 | 87 | 1010.8 |
| 20260904121024 | 72 | 96 | 4.3 | 7.8 | 0.00 | 0.00 | 0.00 | 87 | 1010.7 |
| 20260904120525 | 72 | 96 | 4.3 | 7.8 | 0.00 | 0.00 | 0.00 | 87 | 1010.8 |
| 20260904120044 | 72 | 100 | 3.5 | 6.1 | 0.00 | 0.00 | 0.00 | 87 | 1010.6 |
| 20260904115527 | 72 | 102 | 3.5 | 7.0 | 0.00 | 0.00 | 0.00 | 87 | 1010.7 |
| 20260904115023 | 72 | 103 | 3.5 | 7.0 | 0.00 | 0.00 | 0.00 | 86 | 1010.5 |
| 20260904114546 | 72 | 98 | 3.5 | 5.2 | 0.00 | 0.00 | 0.00 | 86 | 1010.5 |
| 20260904114024 | 72 | 97 | 2.6 | 5.2 | 0.00 | 0.00 | 0.00 | 86 | 1010.6 |
| 20260904113525 | 72 | 105 | 1.7 | 5.2 | 0.00 | 0.00 | 0.00 | 86 | 1010.7 |
| 20260904113049 | 72 | 96 | 2.6 | 5.2 | 0.00 | 0.00 | 0.00 | 86 | 1010.7 |
| 20260904112524 | 72 | 96 | 2.6 | 5.2 | 0.00 | 0.00 | 0.00 | 86 | 1010.6 |
| 20260904112025 | 72 | 93 | 2.6 | 5.2 | 0.00 | 0.00 | 0.00 | 85 | 1010.7 |
| 20260904111546 | 73 | 101 | 2.6 | 5.2 | 0.00 | 0.00 | 0.00 | 85 | 1010.8 |
| 20260904111024 | 73 | 96 | 2.6 | 6.1 | 0.00 | 0.00 | 0.00 | 85 | 1010.7 |
| 20260904110524 | 73 | 101 | 2.6 | 6.1 | 0.00 | 0.00 | 0.00 | 84 | 1010.6 |
| 20260904110043 | 73 | 109 | 3.5 | 5.2 | 0.00 | 0.00 | 0.00 | 84 | 1010.5 |
| 20260904105527 | 73 | 103 | 2.6 | 5.2 | 0.00 | 0.00 | 0.00 | 84 | 1010.4 |
| 20260904105024 | 73 | 98 | 2.6 | 5.2 | 0.00 | 0.00 | 0.00 | 83 | 1010.6 |
| 20260904104543 | 73 | 112 | 2.6 | 5.2 | 0.00 | 0.00 | 0.00 | 83 | 1010.6 |
| 20260904104025 | 73 | 113 | 2.6 | 5.2 | 0.00 | 0.00 | 0.00 | 83 | 1010.7 |
| 20260904103525 | 73 | 106 | 2.6 | 5.2 | 0.00 | 0.00 | 0.00 | 83 | 1010.5 |
| 20260904103046 | 73 | 107 | 2.6 | 6.1 | 0.00 | 0.00 | 0.00 | 83 | 1010.6 |
| 20260904102526 | 74 | 113 | 2.6 | 6.1 | 0.00 | 0.00 | 0.00 | 82 | 1010.6 |
| 20260904102023 | 74 | 111 | 3.5 | 7.0 | 0.00 | 0.00 | 0.00 | 82 | 1010.6 |
| 20260904101546 | 74 | 112 | 4.3 | 7.0 | 0.00 | 0.00 | 0.00 | 82 | 1010.4 |
| 20260904101023 | 74 | 109 | 4.3 | 7.0 | 0.00 | 0.00 | 0.00 | 81 | 1010.4 |
| 20260904100523 | 74 | 98 | 3.5 | 7.0 | 0.00 | 0.00 | 0.00 | 81 | 1010.4 |
| 20260904100042 | 74 | 104 | 4.3 | 7.0 | 0.00 | 0.00 | 0.00 | 81 | 1010.5 |
| 20260904095526 | 74 | 113 | 3.5 | 7.0 | 0.00 | 0.00 | 0.00 | 81 | 1010.4 |
| 20260904095021 | 74 | 105 | 4.3 | 7.0 | 0.00 | 0.00 | 0.00 | 81 | 1010.5 |
| 20260904094545 | 75 | 107 | 4.3 | 7.0 | 0.00 | 0.00 | 0.00 | 80 | 1010.3 |
| 20260904094025 | 75 | 106 | 3.5 | 6.1 | 0.00 | 0.00 | 0.00 | 80 | 1010.4 |
| 20260904093524 | 75 | 102 | 2.6 | 6.1 | 0.00 | 0.00 | 0.00 | 79 | 1010.3 |
| 20260904093046 | 75 | 104 | 3.5 | 7.0 | 0.00 | 0.00 | 0.00 | 79 | 1010.4 |
| 20260904092523 | 75 | 108 | 3.5 | 7.0 | 0.00 | 0.00 | 0.00 | 79 | 1010.4 |
| 20260904092024 | 75 | 111 | 3.5 | 7.0 | 0.00 | 0.00 | 0.00 | 79 | 1010.3 |
| 20260904091544 | 75 | 93 | 4.3 | 7.0 | 0.00 | 0.00 | 0.00 | 78 | 1010.2 |
| 20260904091025 | 76 | 105 | 3.5 | 6.1 | 0.00 | 0.00 | 0.00 | 77 | 1010.2 |
| 20260904090525 | 76 | 118 | 2.6 | 5.2 | 0.00 | 0.00 | 0.00 | 77 | 1010.2 |
| 20260904090043 | 76 | 107 | 3.5 | 5.2 | 0.00 | 0.00 | 0.00 | 76 | 1010.1 |
| 20260904085525 | 76 | 121 | 3.5 | 6.1 | 0.00 | 0.00 | 0.00 | 76 | 1010.1 |
| 20260904085022 | 77 | 111 | 3.5 | 6.1 | 0.00 | 0.00 | 0.00 | 75 | 1010.1 |
| 20260904084542 | 77 | 116 | 3.5 | 5.2 | 0.00 | 0.00 | 0.00 | 75 | 1010.0 |
| 20260904084024 | 77 | 119 | 2.6 | 6.1 | 0.00 | 0.00 | 0.00 | 75 | 1010.1 |
| 20260904083524 | 77 | 127 | 2.6 | 7.0 | 0.00 | 0.00 | 0.00 | 74 | 1010.2 |
| 20260904083047 | 77 | 123 | 2.6 | 7.0 | 0.00 | 0.00 | 0.00 | 74 | 1010.2 |
| 20260904082526 | 78 | 123 | 3.5 | 7.0 | 0.00 | 0.00 | 0.00 | 74 | 1010.1 |
| 20260904082027 | 78 | 115 | 3.5 | 7.0 | 0.00 | 0.00 | 0.00 | 73 | 1010.1 |
| 20260904081543 | 78 | 123 | 3.5 | 7.0 | 0.00 | 0.00 | 0.00 | 73 | 1010.2 |
| 20260904081023 | 78 | 101 | 3.5 | 7.8 | 0.00 | 0.00 | 0.00 | 72 | 1010.1 |
| 20260904080524 | 79 | 131 | 3.5 | 7.8 | 0.00 | 0.00 | 0.00 | 72 | 1010.0 |
| 20260904080049 | 79 | 121 | 3.5 | 7.0 | 0.00 | 0.00 | 0.00 | 72 | 1010.1 |
| 20260904075520 | 79 | 114 | 4.3 | 7.8 | 0.00 | 0.00 | 0.00 | 71 | 1010.2 |
| 20260904075024 | 79 | 109 | 4.3 | 7.8 | 0.00 | 0.00 | 0.00 | 71 | 1010.2 |
| 20260904074546 | 79 | 131 | 3.5 | 7.8 | 0.00 | 0.00 | 0.00 | 71 | 1010.2 |
| 20260904074025 | 80 | 150 | 4.3 | 7.8 | 0.00 | 0.00 | 0.00 | 70 | 1010.3 |
| 20260904073522 | 80 | 143 | 3.5 | 10.4 | 0.00 | 0.00 | 0.00 | 70 | 1010.3 |
| 20260904073048 | 80 | 153 | 5.2 | 11.3 | 0.00 | 0.00 | 0.00 | 70 | 1010.4 |
| 20260904072523 | 80 | 119 | 5.2 | 11.3 | 0.00 | 0.00 | 0.00 | 70 | 1010.4 |
| 20260904072027 | 80 | 151 | 5.2 | 12.2 | 0.00 | 0.00 | 0.00 | 70 | 1010.3 |
| 20260904071544 | 80 | 130 | 7.8 | 13.0 | 0.00 | 0.00 | 0.00 | 69 | 1010.3 |
| 20260904071025 | 80 | 135 | 7.8 | 13.0 | 0.00 | 0.00 | 0.00 | 69 | 1010.2 |
| 20260904070525 | 80 | 130 | 7.0 | 12.2 | 0.00 | 0.00 | 0.00 | 69 | 1010.2 |
| 20260904070052 | 80 | 121 | 7.8 | 12.2 | 0.00 | 0.00 | 0.00 | 69 | 1010.1 |
| 20260904065525 | 80 | 132 | 7.8 | 12.2 | 0.00 | 0.00 | 0.00 | 69 | 1010.1 |
| 20260904065024 | 80 | 134 | 7.8 | 13.0 | 0.00 | 0.00 | 0.00 | 69 | 1010.2 |
| 20260904064546 | 80 | 110 | 7.0 | 13.0 | 0.00 | 0.00 | 0.00 | 69 | 1010.2 |
| 20260904064024 | 80 | 119 | 7.0 | 13.0 | 0.00 | 0.00 | 0.00 | 69 | 1010.2 |
| 20260904063523 | 80 | 115 | 7.0 | 13.0 | 0.00 | 0.00 | 0.00 | 70 | 1010.2 |
| 20260904063043 | 80 | 129 | 7.0 | 13.0 | 0.00 | 0.00 | 0.00 | 70 | 1010.1 |
| 20260904062524 | 80 | 128 | 6.1 | 13.0 | 0.00 | 0.00 | 0.00 | 70 | 1010.0 |
| 20260904062024 | 80 | 131 | 7.8 | 14.8 | 0.00 | 0.00 | 0.00 | 70 | 1010.0 |
| 20260904061542 | 80 | 127 | 8.7 | 14.8 | 0.00 | 0.00 | 0.00 | 71 | 1010.0 |
| 20260904061024 | 80 | 116 | 6.1 | 13.0 | 0.00 | 0.00 | 0.00 | 71 | 1010.0 |
| 20260904060524 | 80 | 146 | 6.1 | 13.0 | 0.00 | 0.00 | 0.00 | 71 | 1010.1 |
| 20260904060046 | 80 | 121 | 7.0 | 13.0 | 0.00 | 0.00 | 0.00 | 71 | 1009.9 |
| 20260904055523 | 80 | 124 | 6.1 | 12.2 | 0.00 | 0.00 | 0.00 | 71 | 1009.9 |
| 20260904055024 | 80 | 124 | 6.1 | 12.2 | 0.00 | 0.00 | 0.00 | 71 | 1009.9 |
| 20260904054546 | 80 | 116 | 7.0 | 11.3 | 0.00 | 0.00 | 0.00 | 71 | 1009.9 |
| 20260904054021 | 80 | 121 | 6.1 | 11.3 | 0.00 | 0.00 | 0.00 | 71 | 1009.9 |
| 20260904053524 | 80 | 136 | 7.8 | 11.3 | 0.00 | 0.00 | 0.00 | 71 | 1009.9 |
| 20260904053042 | 80 | 111 | 6.1 | 10.4 | 0.00 | 0.00 | 0.00 | 71 | 1009.8 |
| 20260904052527 | 80 | 108 | 5.2 | 8.7 | 0.00 | 0.00 | 0.00 | 71 | 1009.7 |
| 20260904052024 | 80 | 114 | 4.3 | 8.7 | 0.00 | 0.00 | 0.00 | 70 | 1009.8 |
| 20260904051541 | 81 | 105 | 5.2 | 8.7 | 0.00 | 0.00 | 0.00 | 70 | 1009.9 |
| 20260904051021 | 81 | 121 | 4.3 | 10.4 | 0.00 | 0.00 | 0.00 | 70 | 1009.9 |
| 20260904050523 | 81 | 134 | 4.3 | 10.4 | 0.00 | 0.00 | 0.00 | 70 | 1009.8 |
| 20260904050046 | 81 | 129 | 6.1 | 10.4 | 0.00 | 0.00 | 0.00 | 70 | 1009.7 |
| 20260904045525 | 81 | 109 | 5.2 | 10.4 | 0.00 | 0.00 | 0.00 | 69 | 1009.6 |
| 20260904045024 | 81 | 113 | 7.0 | 10.4 | 0.00 | 0.00 | 0.00 | 69 | 1009.7 |
| 20260904044545 | 81 | 105 | 6.1 | 13.9 | 0.00 | 0.00 | 0.00 | 69 | 1009.6 |
| 20260904044023 | 82 | 102 | 7.0 | 13.9 | 0.00 | 0.00 | 0.00 | 69 | 1009.5 |
| 20260904043525 | 82 | 107 | 8.7 | 13.9 | 0.00 | 0.00 | 0.00 | 68 | 1009.5 |
| 20260904043050 | 82 | 101 | 8.7 | 13.9 | 0.00 | 0.00 | 0.00 | 68 | 1009.5 |
| 20260904042523 | 82 | 121 | 7.8 | 12.2 | 0.00 | 0.00 | 0.00 | 68 | 1009.6 |
| 20260904042024 | 82 | 102 | 7.0 | 13.0 | 0.00 | 0.00 | 0.00 | 68 | 1009.5 |
| 20260904041543 | 82 | 106 | 8.7 | 13.0 | 0.00 | 0.00 | 0.00 | 68 | 1009.6 |
| 20260904041023 | 82 | 109 | 7.0 | 11.3 | 0.00 | 0.00 | 0.00 | 67 | 1009.6 |
| 20260904040525 | 82 | 96 | 7.0 | 11.3 | 0.00 | 0.00 | 0.00 | 67 | 1009.6 |
| 20260904040058 | 82 | 108 | 7.8 | 13.0 | 0.00 | 0.00 | 0.00 | 67 | 1009.6 |
| 20260904035523 | 83 | 101 | 7.0 | 13.0 | 0.00 | 0.00 | 0.00 | 67 | 1009.6 |
| 20260904035025 | 83 | 98 | 7.0 | 9.6 | 0.00 | 0.00 | 0.00 | 67 | 1009.7 |
| 20260904034550 | 83 | 102 | 7.0 | 9.6 | 0.00 | 0.00 | 0.00 | 66 | 1009.7 |
| 20260904034024 | 83 | 100 | 6.1 | 11.3 | 0.00 | 0.00 | 0.00 | 66 | 1009.8 |
| 20260904033525 | 83 | 111 | 7.0 | 11.3 | 0.00 | 0.00 | 0.00 | 66 | 1009.8 |
| 20260904033047 | 83 | 100 | 7.0 | 11.3 | 0.00 | 0.00 | 0.00 | 65 | 1009.8 |
| 20260904032524 | 84 | 107 | 7.0 | 9.6 | 0.00 | 0.00 | 0.00 | 65 | 1009.8 |
| 20260904032025 | 84 | 113 | 6.1 | 9.6 | 0.00 | 0.00 | 0.00 | 65 | 1009.7 |
| 20260904031544 | 84 | 103 | 6.1 | 11.3 | 0.00 | 0.00 | 0.00 | 64 | 1009.7 |
| 20260904031025 | 84 | 105 | 6.1 | 11.3 | 0.00 | 0.00 | 0.00 | 64 | 1009.7 |
| 20260904030521 | 85 | 105 | 7.0 | 11.3 | 0.00 | 0.00 | 0.00 | 63 | 1009.8 |
| 20260904030044 | 85 | 105 | 6.1 | 8.7 | 0.00 | 0.00 | 0.00 | 63 | 1009.6 |
| 20260904025524 | 85 | 105 | 5.2 | 11.3 | 0.00 | 0.00 | 0.00 | 63 | 1009.7 |
| 20260904025024 | 85 | 96 | 7.0 | 11.3 | 0.00 | 0.00 | 0.00 | 62 | 1009.6 |